TimeCDT,TemperatureF,Dew PointF,Humidity,Sea Level PressureIn,VisibilityMPH,Wind Direction,Wind SpeedMPH,Gust SpeedMPH,PrecipitationIn,Events,Conditions,WindDirDegrees,DateUTC
12:01 AM,66.0,66.0,100,29.94,1.0,South,5.8,-,N/A,,Clear,190,2014-08-17 05:01:00
12:13 AM,64.9,64.9,100,29.94,0.5,South,4.6,-,N/A,Fog,Fog,180,2014-08-17 05:13:00
12:52 AM,66.0,64.9,96,29.93,0.2,Calm,Calm,-,N/A,Fog,Fog,0,2014-08-17 05:52:00
1:19 AM,64.0,64.0,100,29.94,1.2,SE,4.6,-,N/A,,Partly Cloudy,140,2014-08-17 06:19:00
1:27 AM,64.9,64.9,100,29.94,2.5,South,3.5,-,N/A,,Clear,170,2014-08-17 06:27:00
1:35 AM,64.9,64.9,100,29.94,3.0,South,3.5,-,N/A,,Clear,180,2014-08-17 06:35:00
1:52 AM,66.0,66.0,100,29.92,1.8,South,4.6,-,N/A,,Partly Cloudy,180,2014-08-17 06:52:00
1:56 AM,66.0,66.0,100,29.94,0.8,South,5.8,-,N/A,,Mist,170,2014-08-17 06:56:00
2:52 AM,63.0,63.0,100,29.93,0.2,Calm,Calm,-,N/A,Fog,Fog,0,2014-08-17 07:52:00
3:52 AM,64.0,64.0,100,29.93,0.8,SSW,4.6,-,N/A,,Mist,210,2014-08-17 08:52:00
4:12 AM,63.0,63.0,100,29.94,1.2,SW,4.6,-,N/A,,Partly Cloudy,220,2014-08-17 09:12:00
4:23 AM,63.0,63.0,100,29.94,2.0,SW,4.6,-,N/A,,Partly Cloudy,220,2014-08-17 09:23:00
4:47 AM,62.6,62.6,100,29.94,1.5,SSW,4.6,-,N/A,,Clear,210,2014-08-17 09:47:00
4:52 AM,64.0,64.0,100,29.92,2.0,SSW,3.5,-,N/A,,Clear,200,2014-08-17 09:52:00
5:13 AM,62.1,62.1,100,29.94,3.0,WSW,5.8,-,N/A,,Clear,240,2014-08-17 10:13:00
6:52 AM,66.9,66.0,97,29.93,6.0,WSW,3.5,-,N/A,,Clear,240,2014-08-17 11:52:00
7:52 AM,68.0,66.9,96,29.94,6.0,South,4.6,-,N/A,,Clear,190,2014-08-17 12:52:00
8:52 AM,72.0,69.1,91,29.94,10.0,SW,4.6,-,N/A,,Mostly Cloudy,230,2014-08-17 13:52:00
9:52 AM,73.0,69.1,87,29.95,10.0,SSW,6.9,-,N/A,,Scattered Clouds,200,2014-08-17 14:52:00
10:52 AM,78.1,70.0,76,29.96,10.0,SSW,8.1,-,N/A,,Scattered Clouds,200,2014-08-17 15:52:00
11:52 AM,78.1,70.0,76,29.95,10.0,South,9.2,-,N/A,,Mostly Cloudy,190,2014-08-17 16:52:00
12:52 PM,80.1,71.1,74,29.94,10.0,South,11.5,-,N/A,,Overcast,190,2014-08-17 17:52:00
1:14 PM,80.1,71.1,74,29.95,10.0,SSW,12.7,-,N/A,,Mostly Cloudy,200,2014-08-17 18:14:00
1:21 PM,80.1,70.0,71,29.95,10.0,South,12.7,-,N/A,,Scattered Clouds,190,2014-08-17 18:21:00
1:52 PM,80.1,68.0,67,29.92,10.0,South,11.5,-,N/A,,Scattered Clouds,190,2014-08-17 18:52:00
2:52 PM,82.0,70.0,67,29.91,10.0,South,13.8,21.9,N/A,,Partly Cloudy,190,2014-08-17 19:52:00
3:52 PM,82.9,71.1,67,29.89,10.0,SSW,13.8,19.6,N/A,,Scattered Clouds,210,2014-08-17 20:52:00
4:52 PM,82.9,71.1,67,29.88,10.0,South,12.7,20.7,N/A,,Scattered Clouds,190,2014-08-17 21:52:00
5:52 PM,80.1,71.1,74,29.86,10.0,South,11.5,-,N/A,,Scattered Clouds,190,2014-08-17 22:52:00
6:18 PM,79.0,71.1,77,29.86,10.0,South,11.5,-,N/A,Thunderstorm,Thunderstorm,190,2014-08-17 23:18:00
6:30 PM,79.0,71.1,77,29.87,10.0,SW,9.2,-,N/A,Thunderstorm,Overcast,230,2014-08-17 23:30:00
6:48 PM,80.6,71.6,74,29.88,10.0,SW,9.2,-,N/A,,Overcast,220,2014-08-17 23:48:00
6:52 PM,80.1,72.0,76,29.86,10.0,SSW,6.9,-,N/A,Thunderstorm,Overcast,210,2014-08-17 23:52:00
6:59 PM,81.0,72.0,74,29.88,10.0,SW,6.9,-,N/A,Thunderstorm,Mostly Cloudy,230,2014-08-17 23:59:00
7:31 PM,78.1,72.0,81,29.87,10.0,ENE,5.8,-,N/A,,Partly Cloudy,60,2014-08-18 00:31:00
7:52 PM,77.0,71.1,82,29.83,10.0,SSE,5.8,-,N/A,,Clear,160,2014-08-18 00:52:00
8:52 PM,73.0,72.0,96,29.86,8.0,South,3.5,-,N/A,,Clear,170,2014-08-18 01:52:00
9:52 PM,71.1,70.0,96,29.88,6.0,SSW,4.6,-,N/A,,Scattered Clouds,200,2014-08-18 02:52:00
10:52 PM,70.0,69.1,97,29.87,7.0,SW,5.8,-,N/A,,Partly Cloudy,220,2014-08-18 03:52:00